Location: Recife
(8.0585°S, 34.8848°W)
Time: 10:49:57
(UTC-03:00)

Altair - Pass Details

Date: 21 April 2026
Orbit: 1501 x 1682 km, 47.2° (Epoch: 20 May)

Event Time Altitude Azimuth Distance (km) Brightness Sun altitude
Rises 09:33:14 0° 259° (W) 4,891 9.8 57.1°
Reaches altitude 10° 09:38:38 10° 282° (WNW) 3,923 9.5 58.1°
Maximum altitude 09:43:13 14° 310° (NW) 3,618 9.6 59.0°
Drops below altitude 10° 09:47:51 10° 338° (NNW) 3,932 9.9 59.9°
Sets 09:53:22 0° 2° (N) 4,910 10.4 60.9°
